EW3145 Weather Reports


Display with metric or nautical units.
time (UTC)temp
F
wind
direction
speed
MPH
gust
MPH
rain 1hr
in
rain 24hr
in
rain mn
in
humidity
%
barometer
mb
20190616071517 68 320 2.0 4.0 0.00 0.00 0.00 74 1009.6
20190616070010 68 252 2.0 6.0 0.00 0.00 0.00 70 1009.5
20190616064513 69 278 1.0 4.0 0.00 0.00 0.00 67 1009.5
20190616063156 69 213 1.0 4.0 0.00 0.00 0.00 64 1009.3
20190616061700 70 210 0.0 1.0 0.00 0.00 0.00 63 1009.3
20190616060155 70 279 1.0 7.0 0.00 0.00 0.00 62 1009.2
20190616054805 70 248 1.0 7.0 0.00 0.00 0.00 62 1009.2
20190616053154 70 265 0.0 5.0 0.00 0.00 0.00 61 1009.2
20190616051746 70 253 1.0 6.0 0.00 0.00 0.00 61 1009.1
20190616050155 70 155 3.0 5.0 0.00 0.00 0.00 61 1009.1
20190616044636 70 201 2.0 4.0 0.00 0.00 0.00 59 1009.1
20190616043213 70 178 1.0 6.0 0.00 0.00 0.00 58 1009.2
20190616041633 71 187 1.0 6.0 0.00 0.00 0.00 57 1009.1
20190616040130 71 172 1.0 4.0 0.00 0.00 0.00 55 1009.4
20190616034630 71 196 1.0 6.0 0.00 0.00 0.00 54 1009.7
20190616033209 72 250 2.0 7.0 0.00 0.00 0.00 54 1009.8
20190616031644 72 125 2.0 5.0 0.00 0.00 0.00 53 1009.9
20190616030208 72 178 0.0 11.0 0.00 0.00 0.00 53 1010.1
20190616024604 72 274 2.0 12.0 0.00 0.00 0.00 53 1010.1
20190616023126 72 236 3.0 11.0 0.00 0.00 0.00 53 1010.1
20190616021606 72 250 2.0 12.0 0.00 0.00 0.00 55 1010.2
20190616020120 72 61 2.0 6.0 0.00 0.00 0.00 58 1010.1
20190616014701 72 174 0.0 6.0 0.00 0.00 0.00 59 1010.1
20190616013116 72 9 3.0 10.0 0.00 0.00 0.00 59 1010.0
20190616011545 72 150 0.0 7.0 0.00 0.00 0.00 59 1010.0
20190616010115 72 174 1.0 4.0 0.00 0.00 0.00 58 1010.0
20190616004615 73 168 3.0 11.0 0.00 0.00 0.00 57 1010.0
20190616003154 73 182 1.0 11.0 0.00 0.00 0.00 56 1009.9
20190616001550 74 196 1.0 7.0 0.00 0.00 0.00 54 1010.0
20190616000110 74 165 3.0 8.0 0.00 0.00 0.00 54 1010.0
20190615234534 75 160 2.0 5.0 0.00 0.00 0.00 51 1009.8
20190615233109 75 303 3.0 12.0 0.00 0.00 0.00 50 1009.9
20190615231545 76 147 3.0 10.0 0.00 0.00 0.00 48 1010.1
20190615230037 76 184 5.0 10.0 0.00 0.00 0.00 46 1010.0
20190615224542 77 157 3.0 15.0 0.00 0.00 0.00 45 1010.0
20190615223104 77 288 4.0 10.0 0.00 0.00 0.00 44 1010.0
20190615221558 77 217 3.0 13.0 0.00 0.00 0.00 45 1010.0
20190615220055 77 198 5.0 15.0 0.00 0.00 0.00 43 1010.0
20190615214535 78 296 3.0 10.0 0.00 0.00 0.00 42 1010.0
20190615160144 80 268 4.0 15.0 0.00 0.00 0.00 38 1014.4
20190615154649 79 186 1.0 11.0 0.00 0.00 0.00 43 1014.9
20190615153107 77 162 1.0 7.0 0.00 0.00 0.00 51 1014.9
20190615151618 76 184 2.0 11.0 0.00 0.00 0.00 48 1015.2
20190615150107 74 175 1.0 9.0 0.00 0.00 0.00 53 1015.4
20190615144636 72 179 4.0 12.0 0.00 0.00 0.00 54 1015.6
20190615143038 70 157 3.0 10.0 0.00 0.00 0.00 60 1016.0
20190615141533 68 174 2.0 8.0 0.00 0.00 0.00 62 1016.2
20190615140045 68 145 3.0 8.0 0.00 0.00 0.00 63 1016.4
20190615134537 67 169 2.0 9.0 0.00 0.00 0.00 64 1016.5
20190615133025 67 280 0.0 6.0 0.00 0.00 0.00 64 1016.5
20190615131517 66 192 1.0 4.0 0.00 0.00 0.00 64 1016.6
20190615130020 66 150 1.0 6.0 0.00 0.00 0.00 64 1016.8
20190615124508 64 199 1.0 6.0 0.00 0.00 0.00 70 1017.0
20190615123158 62 163 2.0 4.0 0.00 0.00 0.00 74 1017.0
20190615121648 61 169 0.0 0.0 0.00 0.00 0.00 77 1017.0
20190615120149 60 165 0.0 0.0 0.00 0.00 0.00 76 1017.0
20190615114620 60 188 0.0 2.0 0.00 0.00 0.00 77 1016.8
20190615113105 59 253 0.0 4.0 0.00 0.00 0.00 75 1016.8
20190615111605 59 270 1.0 6.0 0.00 0.00 0.00 78 1016.7
20190615110121 57 267 2.0 5.0 0.00 0.00 0.00 80 1016.7
20190615104700 55 253 1.0 7.0 0.00 0.00 0.00 85 1016.6
20190615103055 53 241 1.0 3.0 0.00 0.00 0.00 90 1016.5
20190615101603 52 107 0.0 3.0 0.00 0.00 0.00 93 1016.3
20190615100054 52 316 0.0 2.0 0.00 0.00 0.00 93 1016.2
20190615094543 51 316 0.0 1.0 0.00 0.00 0.00 94 1016.0
20190615093101 50 316 0.0 0.0 0.00 0.00 0.00 94 1015.9
20190615091536 50 316 0.0 0.0 0.00 0.00 0.00 94 1015.7
20190615090047 50 316 0.0 0.0 0.00 0.00 0.00 94 1015.4
20190615084531 49 316 0.0 0.0 0.00 0.00 0.00 94 1015.3
20190615083024 49 275 0.0 0.0 0.00 0.00 0.00 93 1015.1
20190615081706 49 275 0.0 0.0 0.00 0.00 0.00 93 1014.9
20190615080041 49 275 0.0 0.0 0.00 0.00 0.00 93 1014.7
20190615074539 49 275 0.0 0.0 0.00 0.00 0.00 92 1014.6
20190615073044 50 275 0.0 0.0 0.00 0.00 0.00 92 1014.6